Fort Madison, IA

12:14 PM CDT on July 24, 2017 (GMT -0500)
Fort Madison Municipal

Weather History for KFSW - January, 2013

Change the Weather History Date:

Tuesday, January 8, 2013

  Actual Average Record
Temperature  
Mean Temperature 37 °F -  
Max Temperature 44 °F 27 °F 66 °F (2003)
Min Temperature 30 °F 10 °F -10 °F (1970)
Degree Days  
Heating Degree Days 28    
Moisture  
Dew Point 27 °F    
Average Humidity 66    
Maximum Humidity 80    
Minimum Humidity 53    
Precipitation  
Precipitation 0.00 in - - ()
Sea Level Pressure  
Sea Level Pressure 30.06 in    
Wind  
Wind Speed 10 mph (South)    
Max Wind Speed 14 mph    
Max Gust Speed 22 mph    
Visibility 10 miles    
Events      
Averages and records for this station are not official NWS values.
T = Trace of Precipitation, MM = Missing Value Source: NWS Daily Summary

Daily Weather History Graph

Daily Weather History Graph

Search for Another Location

Airport or City:

Trip Planner

Search our weather history database for the weather conditions in past years. The results will help you decide how hot, cold, wet, or windy it might be!

Date:

Astronomy

Jan. 08, 2013 Rise Set
Actual Time 7:29 AM CST 4:55 PM CST
Civil Twilight 6:58 AM CST 5:26 PM CST
Nautical Twilight 6:24 AM CST 6:00 PM CST
Astronomical Twilight 5:51 AM CST 6:33 PM CST
Moon 4:02 AM CST (1/8) 1:58 PM CST (1/8)
Length of Visible Light 10h 27m
Length of Day
9h 26m
Waning Crescent, 13% of the Moon is Illuminated
Jan 8
Waning Crescent
Jan 11
New
Jan 18
First Quarter
Jan 26
Full
Feb 3
Last Quarter

Hourly Weather History & Observations

Time (CST) Temp. Windchill Dew Point Humidity Pressure Visibility Wind Dir Wind Speed Gust Speed Precip Events Conditions
12:15 AM 32.0 °F 24.8 °F 24.8 °F 75% 30.08 in 10.0 mi South 8.1 mph - N/A   Clear
12:35 AM 32.0 °F 24.8 °F 24.8 °F 75% 30.08 in 10.0 mi South 8.1 mph - N/A   Clear
12:55 AM 30.2 °F 22.6 °F 24.8 °F 80% 30.08 in 10.0 mi South 8.1 mph - N/A   Clear
1:15 AM 32.0 °F 24.8 °F 24.8 °F 75% 30.09 in 10.0 mi South 8.1 mph - N/A   Clear
1:35 AM 32.0 °F 24.2 °F 24.8 °F 75% 30.08 in 10.0 mi South 9.2 mph - N/A   Clear
1:55 AM 32.0 °F 24.2 °F 24.8 °F 75% 30.08 in 10.0 mi South 9.2 mph - N/A   Clear
2:15 AM 30.2 °F 21.9 °F 24.8 °F 80% 30.09 in 10.0 mi South 9.2 mph - N/A   Clear
2:35 AM 32.0 °F 24.2 °F 24.8 °F 75% 30.08 in 10.0 mi South 9.2 mph - N/A   Clear
2:55 AM 32.0 °F 24.2 °F 24.8 °F 75% 30.08 in 10.0 mi South 9.2 mph - N/A   Clear
3:15 AM 32.0 °F 24.2 °F 24.8 °F 75% 30.08 in 10.0 mi SSW 9.2 mph - N/A   Clear
3:35 AM 32.0 °F 24.2 °F 24.8 °F 75% 30.08 in 10.0 mi South 9.2 mph - N/A   Clear
3:55 AM 32.0 °F 24.2 °F 24.8 °F 75% 30.08 in 10.0 mi SSW 9.2 mph - N/A   Clear
4:15 AM 32.0 °F 24.2 °F 24.8 °F 75% 30.07 in 10.0 mi South 9.2 mph - N/A   Clear
4:35 AM 32.0 °F 24.2 °F 24.8 °F 75% 30.07 in 10.0 mi South 9.2 mph - N/A   Clear
4:55 AM 32.0 °F 24.2 °F 24.8 °F 75% 30.07 in 10.0 mi South 9.2 mph - N/A   Clear
5:15 AM 32.0 °F 24.2 °F 24.8 °F 75% 30.07 in 10.0 mi South 9.2 mph - N/A   Clear
5:35 AM 30.2 °F 21.9 °F 24.8 °F 80% 30.07 in 10.0 mi South 9.2 mph - N/A   Clear
6:15 AM 30.2 °F 21.3 °F 24.8 °F 80% 30.08 in 10.0 mi South 10.4 mph - N/A   Clear
6:35 AM 32.0 °F 24.2 °F 24.8 °F 75% 30.08 in 10.0 mi South 9.2 mph - N/A   Clear
6:55 AM 32.0 °F 23.6 °F 24.8 °F 75% 30.08 in 10.0 mi South 10.4 mph - N/A   Clear
7:15 AM 32.0 °F 23.6 °F 24.8 °F 75% 30.08 in 10.0 mi South 10.4 mph - N/A   Clear
7:35 AM 32.0 °F 23.0 °F 24.8 °F 75% 30.08 in 10.0 mi South 11.5 mph - N/A   Clear
7:55 AM 32.0 °F 23.6 °F 24.8 °F 75% 30.09 in 10.0 mi South 10.4 mph - N/A   Clear
8:15 AM 33.8 °F 25.8 °F 24.8 °F 70% 30.10 in 10.0 mi South 10.4 mph - N/A   Clear
8:35 AM 33.8 °F 25.8 °F 24.8 °F 70% 30.10 in 10.0 mi South 10.4 mph - N/A   Clear
8:55 AM 33.8 °F 26.4 °F 24.8 °F 70% 30.10 in 10.0 mi South 9.2 mph - N/A   Clear
9:15 AM 35.6 °F 26.6 °F 24.8 °F 65% 30.10 in 10.0 mi South 13.8 mph - N/A   Clear
9:35 AM 37.4 °F 28.9 °F 24.8 °F 60% 30.10 in 10.0 mi South 13.8 mph 18.4 mph N/A   Clear
9:55 AM 37.4 °F 29.3 °F 24.8 °F 60% 30.10 in 10.0 mi South 12.7 mph 17.3 mph N/A   Clear
10:15 AM 37.4 °F 29.8 °F 24.8 °F 60% 30.11 in 10.0 mi South 11.5 mph - N/A   Clear
10:35 AM 37.4 °F 30.3 °F 24.8 °F 60% 30.10 in 10.0 mi South 10.4 mph - N/A   Clear
10:55 AM 37.4 °F 29.8 °F 24.8 °F 60% 30.10 in 10.0 mi South 11.5 mph - N/A   Clear
11:15 AM 39.2 °F 32.0 °F 26.6 °F 61% 30.09 in 10.0 mi South 11.5 mph - N/A   Clear
11:55 AM 39.2 °F 32.5 °F 26.6 °F 61% 30.07 in 10.0 mi South 10.4 mph - N/A   Clear
12:15 PM 42.8 °F 36.2 °F 26.6 °F 53% 30.06 in 10.0 mi SSW 12.7 mph 18.4 mph N/A   Clear
12:35 PM 42.8 °F 36.6 °F 26.6 °F 53% 30.05 in 10.0 mi South 11.5 mph - N/A   Clear
12:55 PM 42.8 °F 36.6 °F 26.6 °F 53% 30.04 in 10.0 mi South 11.5 mph - N/A   Clear
1:15 PM 42.8 °F 37.0 °F 26.6 °F 53% 30.04 in 10.0 mi South 10.4 mph 17.3 mph N/A   Clear
1:55 PM 42.8 °F 36.6 °F 28.4 °F 57% 30.03 in 10.0 mi South 11.5 mph - N/A   Clear
2:15 PM 44.6 °F 38.4 °F 28.4 °F 53% 30.03 in 10.0 mi South 12.7 mph 16.1 mph N/A   Clear
2:35 PM 44.6 °F 40.2 °F 28.4 °F 53% 30.02 in 10.0 mi South 8.1 mph 16.1 mph N/A   Clear
2:55 PM 44.6 °F 38.4 °F 28.4 °F 53% 30.02 in 10.0 mi South 12.7 mph - N/A   Clear
3:15 PM 44.6 °F 38.1 °F 28.4 °F 53% 30.02 in 10.0 mi South 13.8 mph 18.4 mph N/A   Clear
3:35 PM 44.6 °F 38.8 °F 30.2 °F 57% 30.01 in 10.0 mi South 11.5 mph 17.3 mph N/A   Clear
3:55 PM 44.6 °F 39.7 °F 30.2 °F 57% 30.02 in 10.0 mi South 9.2 mph - N/A   Clear
4:15 PM 42.8 °F 37.5 °F 30.2 °F 61% 30.02 in 10.0 mi South 9.2 mph - N/A   Clear
4:35 PM 42.8 °F 37.0 °F 30.2 °F 61% 30.01 in 10.0 mi SSE 10.4 mph - N/A   Clear
4:55 PM 41.0 °F 34.7 °F 30.2 °F 65% 30.01 in 10.0 mi South 10.4 mph - N/A   Clear
5:15 PM 39.2 °F 31.6 °F 30.2 °F 70% 30.01 in 10.0 mi SSE 12.7 mph 17.3 mph N/A   Scattered Clouds
5:35 PM 41.0 °F 33.9 °F 28.4 °F 61% 29.99 in 10.0 mi SSE 12.7 mph 19.6 mph N/A   Mostly Cloudy
5:55 PM 39.2 °F 32.5 °F 28.4 °F 65% 30.01 in 10.0 mi South 10.4 mph - N/A   Mostly Cloudy
6:15 PM 41.0 °F 33.5 °F 28.4 °F 61% 30.00 in 10.0 mi South 13.8 mph 21.9 mph N/A   Mostly Cloudy
6:35 PM 39.2 °F 31.6 °F 28.4 °F 65% 30.01 in 10.0 mi South 12.7 mph 20.7 mph N/A   Mostly Cloudy
6:55 PM 39.2 °F 32.0 °F 28.4 °F 65% 30.02 in 10.0 mi South 11.5 mph - N/A   Mostly Cloudy
7:15 PM 39.2 °F 32.0 °F 28.4 °F 65% 30.03 in 10.0 mi South 11.5 mph - N/A   Mostly Cloudy
7:35 PM 39.2 °F 33.6 °F 28.4 °F 65% 30.03 in 10.0 mi South 8.1 mph - N/A   Mostly Cloudy
7:55 PM 39.2 °F 35.0 °F 28.4 °F 65% 30.04 in 10.0 mi South 5.8 mph - N/A   Scattered Clouds
8:15 PM 39.2 °F 33.6 °F 28.4 °F 65% 30.04 in 10.0 mi South 8.1 mph - N/A   Clear
8:35 PM 37.4 °F 32.8 °F 28.4 °F 70% 30.04 in 10.0 mi South 5.8 mph - N/A   Clear
8:55 PM 37.4 °F 32.1 °F 28.4 °F 70% 30.04 in 10.0 mi South 6.9 mph - N/A   Scattered Clouds
9:15 PM 39.2 °F 34.2 °F 26.6 °F 61% 30.04 in 10.0 mi SSW 6.9 mph - N/A   Scattered Clouds
9:35 PM 39.2 °F 33.6 °F 26.6 °F 61% 30.04 in 10.0 mi SSW 8.1 mph - N/A   Scattered Clouds
9:55 PM 39.2 °F 33.0 °F 26.6 °F 61% 30.05 in 10.0 mi SSW 9.2 mph - N/A   Clear
10:15 PM 39.2 °F 33.0 °F 26.6 °F 61% 30.05 in 10.0 mi SSW 9.2 mph - N/A   Clear
10:35 PM 39.2 °F 33.0 °F 26.6 °F 61% 30.05 in 10.0 mi SSW 9.2 mph - N/A   Clear
11:55 PM 39.2 °F 32.0 °F 28.4 °F 65% 30.07 in 10.0 mi SW 11.5 mph - N/A   Clear